Total_Precipitation_Accumulation
0.06 0.06 0.02 0.02 0.01 0.00 0.01 0.15 0.56 0.59 0.15 0.33 0.14 0.17 0.58 0.07 0.44 0.27 0.30 0.13 0.26 0.15 0.22 0.27 0.35 0.41 0.33 0.34 0.10 0.08 0.09 0.07 0.11 0.28 0.71 1.31 0.32 0.54 0.52 0.20 0.20 0.25 0.20 0.22 0.28 0.31 0.45 0.34 0.46 0.59 1.05 1.19 1.82 1.84 2.21 2.53 1.69 1.58 1.62 1.72 2.62 1.42 1.41 0.96 1.15 0.87 0.73 0.67 0.66 0.75 0.75 0.74 0.64 0.70 0.68 0.54 0.43 0.55 0.41 0.38 0.42 0.69 0.69 0.67 0.69 0.64 0.68 0.70 0.83 0.79 0.94 1.18 0.91 0.76 0.57 0.48 0.48
0.03 0.02 0.03 0.02 0.05 0.00 0.28 0.21 0.56 0.20 0.16 0.16 0.22 0.22 0.53 0.17 0.08 0.51 0.45 0.33 0.46 0.40 0.47 0.16 0.27 0.13 0.10 0.09 0.04 0.21 0.19 0.13 0.22 0.32 0.40 0.72 0.69 0.55 0.36 0.16 0.22 0.11 0.06 0.11 0.13 0.49 0.23 0.24 0.47 0.51 1.06 1.88 1.89 1.81 2.17 1.84 2.34 1.85 1.64 1.86 2.68 1.77 1.43 1.17 1.24 1.13 0.84 0.92 0.85 0.84 0.74 0.74 0.80 0.82 0.75 0.59 0.68 0.53 0.59 0.59 0.73 0.75 0.67 0.80 0.71 0.75 0.85 0.95 0.93 0.68 1.21 1.28 0.99 0.82 0.73 0.67 0.89
0.00 0.01 0.01 0.01 0.01 0.04 0.09 0.12 0.33 0.19 0.53 0.33 0.36 0.25 0.40 0.44 0.36 0.31 0.35 0.24 0.08 0.14 0.03 0.15 0.07 0.11 0.44 0.21 0.25 0.31 0.46 0.40 0.15 0.34 0.58 0.29 0.27 0.45 0.26 0.20 0.08 0.10 0.08 0.15 0.13 0.36 0.24 0.20 0.28 0.52 0.53 1.43 1.79 1.43 1.56 2.50 1.48 1.33 2.01 2.04 2.29 1.54 2.33 1.36 1.26 1.22 1.06 1.15 1.15 1.36 1.24 1.15 1.10 1.02 0.76 0.92 0.64 0.95 1.01 0.79 0.66 0.80 0.85 0.83 0.80 0.84 0.99 0.76 0.69 1.09 0.85 1.45 1.54 1.05 1.39 0.86 1.01
0.04 0.01 0.02 0.02 0.06 0.02 0.05 0.32 0.16 0.46 0.45 0.29 0.34 0.60 0.45 0.21 0.28 0.14 0.56 0.39 0.23 0.03 0.03 0.00 0.01 0.03 0.04 0.05 0.08 0.03 0.11 0.20 0.15 0.11 0.44 0.38 0.16 0.15 0.10 0.15 0.15 0.03 0.06 0.11 0.07 0.21 0.32 0.36 0.39 0.32 0.47 1.21 1.48 2.09 1.45 1.39 2.73 1.94 2.00 2.48 2.07 2.46 1.65 1.30 1.78 0.99 1.12 0.98 0.88 1.00 0.89 0.90 0.91 0.84 1.01 0.92 0.90 0.75 0.60 0.78 1.00 0.82 0.71 0.80 1.00 1.17 0.81 0.94 1.26 1.26 0.91 0.66 1.38 1.30 1.12 1.39 1.01
0.05 0.11 0.06 0.04 0.02 0.15 0.07 0.34 0.31 0.22 0.33 0.64 0.60 0.67 0.21 0.21 0.43 0.23 0.28 0.17 0.12 0.26 0.13 0.03 0.00 0.02 0.01 0.03 0.05 0.09 0.18 0.15 0.12 0.09 0.27 0.26 0.06 0.12 0.11 0.11 0.12 0.08 0.10 0.07 0.14 0.13 0.21 0.26 0.30 0.38 0.57 1.28 2.04 1.67 1.48 1.83 1.84 2.48 2.72 3.23 2.40 1.78 1.80 1.43 1.32 1.30 1.13 0.89 0.86 0.81 0.70 0.68 0.87 0.86 1.18 1.05 0.90 1.09 1.32 1.00 0.92 0.71 0.89 0.95 0.92 1.17 1.32 1.20 1.25 1.15 0.79 0.64 0.60 1.13 1.47 1.64 1.91
0.01 0.00 0.02 0.02 0.09 0.24 0.06 0.14 0.19 0.29 0.56 0.42 0.36 0.35 0.11 0.20 0.05 0.01 0.04 0.03 0.03 0.02 0.05 0.03 0.03 0.01 0.00 0.01 0.01 0.04 0.09 0.22 0.26 0.15 0.20 0.32 0.17 0.17 0.07 0.04 0.06 0.05 0.18 0.12 0.11 0.09 0.17 0.16 0.15 0.34 0.50 0.96 1.63 1.67 1.70 1.57 1.83 1.89 2.19 2.75 3.63 2.50 2.07 1.48 2.01 1.40 1.37 1.40 1.43 1.00 0.78 0.87 0.75 0.88 1.04 1.06 1.05 1.11 1.12 1.04 1.43 1.49 1.17 1.06 1.12 1.45 1.49 1.31 0.82 0.94 0.62 0.67 0.75 0.68 0.96 1.05 1.32
0.01 0.01 0.04 0.05 0.04 0.04 0.43 0.39 0.56 0.58 0.26 0.06 0.08 0.15 0.35 0.06 0.05 0.03 0.01 0.01 0.15 0.08 0.22 0.00 0.00 0.09 0.00 0.02 0.01 0.05 0.02 0.06 0.13 0.13 0.12 0.13 0.10 0.09 0.11 0.05 0.03 0.02 0.07 0.12 0.08 0.09 0.15 0.10 0.14 0.41 0.53 1.40 2.01 2.29 1.82 1.38 1.79 1.56 2.09 1.98 1.85 2.63 2.70 1.66 1.54 1.77 1.96 1.64 1.34 1.12 1.14 1.14 0.99 1.06 1.05 1.57 1.92 2.14 2.08 1.70 1.63 1.55 1.66 1.38 1.25 1.19 1.07 0.95 0.83 0.65 0.70 0.59 0.67 0.67 0.84 0.92 0.97
0.02 0.04 0.17 0.17 0.50 0.32 0.31 0.39 0.40 0.17 0.28 0.05 0.08 0.03 0.04 0.05 0.02 0.02 0.06 0.02 0.07 0.03 0.12 0.09 0.02 0.00 0.05 0.01 0.03 0.04 0.02 0.04 0.05 0.13 0.10 0.06 0.09 0.03 0.05 0.04 0.05 0.10 0.05 0.02 0.02 0.08 0.09 0.06 0.19 0.37 0.79 1.49 1.25 0.94 1.46 1.27 1.58 1.45 2.13 1.95 1.75 2.27 2.49 2.04 2.72 1.62 1.14 1.28 1.32 1.33 1.31 1.58 1.66 1.68 1.78 1.52 1.26 1.18 1.16 1.47 1.52 1.38 1.09 1.11 0.90 1.12 1.23 1.00 0.74 0.90 0.73 0.62 0.71 0.69 0.68 0.64 0.68
0.16 0.12 0.19 0.25 0.32 0.26 0.20 0.20 0.16 0.10 0.10 0.13 0.14 0.04 0.02 0.02 0.05 0.07 0.08 0.07 0.09 0.09 0.15 0.15 0.06 0.03 0.05 0.02 0.05 0.04 0.06 0.08 0.08 0.07 0.04 0.08 0.09 0.14 0.19 0.14 0.07 0.08 0.09 0.09 0.08 0.10 0.10 0.08 0.19 0.33 1.40 1.51 2.22 1.37 1.18 1.41 1.13 1.14 1.60 1.49 1.46 1.80 2.19 1.54 1.96 1.89 2.70 3.07 3.20 2.95 2.39 2.17 2.09 1.94 1.79 1.56 1.65 1.36 1.40 1.72 1.27 1.22 1.45 1.26 1.13 1.07 1.18 0.94 0.93 0.86 0.77 0.64 0.77 0.76 0.74 0.67 0.80
0.05 0.02 0.14 0.09 0.08 0.17 0.11 0.12 0.05 0.07 0.07 0.13 0.13 0.13 0.11 0.09 0.09 0.03 0.07 0.09 0.11 0.13 0.10 0.05 0.28 0.05 0.07 0.07 0.29 0.19 0.22 0.25 0.35 0.27 0.19 0.27 0.23 0.30 0.23 0.15 0.18 0.18 0.14 0.20 0.26 0.27 0.34 0.23 0.30 0.48 1.02 0.95 1.12 1.39 1.50 0.88 1.08 1.16 1.10 0.89 1.20 1.36 1.07 1.55 1.28 1.31 1.51 1.36 1.44 1.51 1.57 1.69 1.72 2.02 1.94 1.95 1.94 1.88 1.70 2.02 1.84 1.63 1.84 1.70 1.58 1.48 1.39 1.14 1.36 0.99 1.01 0.93 0.86 0.78 0.79 0.71 0.63
0.03 0.01 0.01 0.13 0.12 0.09 0.11 0.15 0.10 0.02 0.01 0.03 0.01 0.00 0.12 0.06 0.07 0.14 0.13 0.12 0.12 0.12 0.13 0.18 0.13 0.10 0.09 0.08 0.25 0.24 0.15 0.17 0.11 0.12 0.13 0.17 0.08 0.09 0.05 0.05 0.05 0.05 0.04 0.17 0.14 0.11 0.12 0.27 0.28 0.90 0.60 1.34 1.33 0.85 0.89 1.01 1.11 1.36 1.18 1.04 1.06 1.11 1.08 1.09 1.27 1.12 1.08 1.07 1.28 1.69 1.60 1.50 1.40 1.42 1.59 1.60 1.47 1.40 1.47 1.88 1.83 1.58 1.45 2.06 1.94 1.81 1.45 1.22 1.19 1.09 0.87 0.84 0.81 0.92 0.85 0.89 0.74
0.05 0.03 0.03 0.07 0.05 0.10 0.16 0.17 0.10 0.05 0.02 0.03 0.02 0.08 0.02 0.01 0.04 0.14 0.12 0.11 0.09 0.10 0.12 0.18 0.18 0.13 0.13 0.12 0.26 0.30 0.17 0.14 0.13 0.18 0.26 0.08 0.16 0.13 0.11 0.09 0.07 0.02 0.04 0.08 0.19 0.23 0.44 0.35 0.85 0.68 1.02 0.83 1.42 1.00 1.20 0.79 1.66 1.24 1.51 1.34 0.89 1.02 1.02 1.22 1.27 0.88 0.82 0.92 1.02 0.89 1.20 1.13 1.05 1.13 1.38 1.25 1.42 1.44 1.41 1.55 2.09 1.77 1.65 1.54 1.93 2.11 1.90 1.79 1.65 1.24 1.25 1.00 0.99 0.82 1.00 0.78 0.68
0.03 0.01 0.08 0.03 0.05 0.04 0.03 0.02 0.04 0.03 0.06 0.08 0.21 0.12 0.04 0.04 0.10 0.06 0.24 0.53 0.82 0.59 0.32 0.15 0.15 0.11 0.09 0.06 0.15 0.12 0.31 0.26 0.06 0.09 0.10 0.14 0.10 0.06 0.06 0.22 0.22 0.14 0.09 0.09 0.17 0.14 0.09 0.26 0.43 0.59 0.69 1.21 1.29 1.34 1.61 1.11 0.86 1.08 1.58 1.82 1.10 1.19 1.29 1.37 1.00 1.01 0.79 0.92 0.88 1.23 1.05 1.11 1.11 0.89 1.05 1.25 1.34 1.47 1.59 1.63 1.68 1.45 1.38 1.69 1.63 2.04 1.91 2.33 2.25 1.74 1.73 1.49 1.43 1.29 1.07 0.77 0.80
0.01 0.00 0.04 0.07 0.00 0.00 0.00 0.01 0.00 0.00 0.00 0.00 0.00 0.31 0.25 0.10 0.02 0.00 0.46 0.19 0.07 0.13 0.06 0.06 0.06 0.03 0.04 0.05 0.25 0.24 0.10 0.09 0.04 0.07 0.04 0.02 0.03 0.02 0.03 0.05 0.04 0.06 0.15 0.11 0.07 0.12 0.23 0.27 0.26 0.37 0.50 0.81 1.05 1.11 0.82 0.74 1.02 1.15 0.90 1.31 1.17 1.04 1.28 1.35 1.47 1.35 1.57 1.59 1.91 1.29 1.03 0.83 0.81 0.73 0.79 0.94 1.14 1.07 1.14 1.18 1.58 1.49 1.63 1.54 1.62 1.59 1.96 1.96 1.83 2.10 1.76 1.60 1.44 1.05 1.00 0.97 0.88
0.00 0.00 0.02 0.03 0.02 0.01 0.00 0.01 0.00 0.00 0.00 0.00 0.00 0.00 0.00 0.08 0.10 0.05 0.02 0.21 0.03 0.04 0.03 0.02 0.02 0.02 0.12 0.06 0.08 0.05 0.07 0.08 0.02 0.05 0.02 0.02 0.02 0.01 0.01 0.01 0.02 0.03 0.06 0.13 0.07 0.09 0.09 0.17 0.20 0.25 0.39 0.35 0.66 1.13 1.23 1.16 1.01 0.93 1.23 1.17 1.46 2.00 2.04 2.10 2.36 2.67 2.34 1.50 1.16 0.97 0.88 0.71 0.54 0.52 0.67 0.62 0.79 0.65 0.57 1.34 0.88 1.18 1.23 1.73 1.59 1.50 1.31 1.43 1.52 1.76 1.59 2.18 1.94 1.19 0.92 0.68 0.93
0.00 0.00 0.02 0.06 0.03 0.01 0.00 0.00 0.00 0.00 0.00 0.00 0.00 0.00 0.00 0.00 0.00 0.01 0.01 0.01 0.00 0.01 0.02 0.03 0.01 0.00 0.00 0.03 0.03 0.04 0.02 0.04 0.00 0.01 0.01 0.01 0.03 0.02 0.02 0.03 0.03 0.01 0.02 0.05 0.04 0.02 0.09 0.10 0.12 0.15 0.21 0.32 0.35 0.58 0.99 1.40 1.97 2.19 2.41 3.11 2.91 2.70 2.50 2.08 2.88 3.18 3.29 3.18 2.45 1.23 0.76 0.53 0.50 0.62 0.74 0.88 0.74 0.77 0.58 0.77 0.81 1.23 1.17 1.13 1.09 1.74 1.61 1.73 1.71 1.68 1.68 1.90 2.11 1.95 1.08 1.12 1.11
0.00 0.00 0.08 0.03 0.01 0.01 0.00 0.00 0.00 0.00 0.00 0.00 0.00 0.00 0.00 0.00 0.00 0.00 0.00 0.00 0.00 0.00 0.00 0.00 0.00 0.00 0.00 0.00 0.01 0.02 0.00 0.00 0.00 0.00 0.01 0.01 0.02 0.05 0.05 0.05 0.04 0.02 0.01 0.03 0.03 0.03 0.05 0.05 0.16 0.20 0.30 0.19 0.45 0.41 0.74 0.96 1.53 1.25 1.66 1.70 2.16 3.19 2.88 3.42 3.06 3.02 2.83 2.46 1.88 1.51 1.27 1.04 0.96 0.93 0.75 0.82 0.92 0.71 0.62 0.57 0.66 0.95 1.01 1.06 1.11 0.99 1.38 1.52 1.72 1.73 1.50 1.55 1.72 1.42 1.17 0.80 0.79
0.01 0.04 0.02 0.03 0.01 0.01 0.01 0.00 0.00 0.00 0.00 0.00 0.01 0.00 0.00 0.00 0.00 0.00 0.00 0.00 0.00 0.00 0.00 0.00 0.00 0.00 0.00 0.00 0.01 0.01 0.01 0.00 0.00 0.00 0.01 0.02 0.02 0.04 0.05 0.04 0.04 0.04 0.02 0.02 0.03 0.03 0.05 0.06 0.03 0.04 0.08 0.23 0.29 0.24 0.30 0.32 0.56 1.23 0.85 0.88 1.64 1.73 2.12 2.80 3.65 3.44 2.78 2.76 2.62 2.51 2.12 1.96 1.69 1.32 1.14 1.09 0.98 0.96 0.86 0.72 0.69 0.68 0.80 0.94 0.90 1.29 1.23 1.51 1.36 1.35 1.91 1.67 1.57 1.01 1.02 1.01 0.92
0.03 0.06 0.03 0.01 0.00 0.00 0.00 0.00 0.00 0.08 0.02 0.01 0.00 0.00 0.00 0.00 0.00 0.06 0.00 0.00 0.00 0.00 0.00 0.00 0.00 0.00 0.00 0.00 0.00 0.00 0.00 0.00 0.00 0.01 0.01 0.03 0.03 0.01 0.02 0.03 0.03 0.02 0.02 0.01 0.01 0.01 0.02 0.02 0.02 0.04 0.03 0.12 0.36 0.36 0.56 0.24 0.26 0.44 0.57 0.80 0.83 0.88 1.11 2.11 1.63 1.96 2.27 2.26 2.62 2.18 1.88 1.56 1.44 1.40 1.32 0.93 1.06 0.64 0.80 0.74 0.65 0.66 0.75 0.92 1.02 0.77 0.91 0.99 1.22 1.62 1.30 1.28 1.20 0.93 0.88 0.86 1.14
0.01 0.16 0.04 0.02 0.00 0.00 0.00 0.00 0.04 0.02 0.01 0.02 0.01 0.00 0.00 0.00 0.00 0.00 0.00 0.00 0.15 0.10 0.14 0.02 0.00 0.02 0.05 0.17 0.30 0.01 0.00 0.00 0.00 0.00 0.01 0.01 0.01 0.01 0.01 0.01 0.02 0.01 0.01 0.01 0.00 0.00 0.01 0.02 0.03 0.03 0.03 0.07 0.05 0.14 0.19 0.18 0.45 0.86 0.45 0.71 0.52 0.79 0.60 0.65 1.19 1.09 1.05 0.82 1.21 1.08 1.21 0.99 0.88 0.85 0.69 0.60 0.33 0.28 0.34 0.47 0.58 0.59 0.76 0.62 0.72 0.80 0.84 0.87 0.97 0.91 1.15 1.25 1.18 0.86 0.85 0.79 0.99
0.02 0.08 0.03 0.02 0.01 0.01 0.01 0.01 0.03 0.06 0.08 0.01 0.00 0.00 0.00 0.01 0.01 0.00 0.00 0.00 0.00 0.01 0.01 0.00 0.01 0.01 0.00 0.00 0.00 0.37 0.26 0.12 0.07 0.04 0.03 0.02 0.01 0.01 0.00 0.00 0.00 0.00 0.00 0.00 0.01 0.00 0.00 0.01 0.03 0.05 0.03 0.08 0.09 0.45 0.24 0.15 0.09 0.17 0.20 0.29 0.54 0.42 0.54 0.45 0.77 1.29 0.79 0.76 0.51 0.83 0.68 0.72 0.81 0.42 0.32 0.56 0.65 0.45 0.52 0.49 0.52 0.46 0.53 0.53 0.50 0.64 0.80 1.10 0.93 0.90 0.96 0.87 0.83 0.90 0.88 0.88 0.78
0.01 0.01 0.00 0.00 0.00 0.01 0.00 0.03 0.15 0.01 0.08 0.06 0.09 0.08 0.00 0.00 0.02 0.00 0.02 0.01 0.00 0.05 0.02 0.06 0.01 0.00 0.03 0.00 0.05 0.03 0.00 0.02 0.04 0.04 0.02 0.00 0.00 0.00 0.00 0.01 0.01 0.00 0.00 0.01 0.01 0.01 0.00 0.02 0.02 0.05 0.06 0.05 0.06 0.15 0.27 0.24 0.51 0.28 0.42 0.78 0.28 0.50 0.79 0.70 0.79 1.18 1.34 1.05 1.08 0.68 0.55 1.24 0.71 0.60 0.72 0.44 0.31 0.52 0.35 0.36 0.55 0.78 0.41 0.43 0.43 0.49 0.50 0.67 0.75 0.75 0.89 0.60 0.72 0.87 0.80 0.90 1.05
0.15 0.01 0.00 0.01 0.01 0.02 0.01 0.05 0.02 0.00 0.00 0.00 0.02 0.03 0.00 0.00 0.00 0.00 0.00 0.00 0.00 0.01 0.05 0.08 0.14 0.09 0.05 0.11 0.10 0.10 0.02 0.02 0.01 0.01 0.01 0.00 0.00 0.00 0.00 0.00 0.00 0.00 0.01 0.00 0.03 0.00 0.02 0.01 0.02 0.03 0.08 0.09 0.15 0.12 0.17 0.34 0.16 0.18 0.27 0.24 0.33 0.51 0.53 0.65 0.91 1.07 1.51 1.25 1.13 1.35 1.02 0.94 0.90 1.12 0.80 0.72 0.62 0.44 0.48 0.70 0.48 0.46 0.64 0.36 0.45 0.47 0.51 0.54 0.65 0.59 0.61 0.73 0.55 0.65 0.73 0.80 0.75
0.13 0.05 0.01 0.02 0.04 0.03 0.03 0.01 0.00 0.00 0.02 0.01 0.01 0.01 0.05 0.13 0.12 0.08 0.09 0.00 0.06 0.06 0.03 0.04 0.02 0.02 0.11 0.06 0.07 0.08 0.14 0.12 0.06 0.12 0.07 0.02 0.01 0.00 0.01 0.00 0.01 0.00 0.00 0.00 0.01 0.01 0.02 0.01 0.02 0.13 0.06 0.09 0.13 0.19 0.20 0.18 0.23 0.52 0.30 0.53 0.20 0.26 0.35 0.58 0.47 0.83 0.58 0.64 0.73 1.11 0.83 1.37 1.53 0.90 0.79 0.53 0.43 0.66 0.71 0.59 0.71 0.42 0.22 0.35 0.90 0.86 0.52 0.64 0.84 0.42 0.57 0.77 0.66 0.59 0.71 0.76 0.86
0.02 0.03 0.04 0.02 0.03 0.02 0.06 0.04 0.03 0.11 0.10 0.17 0.24 0.10 0.02 0.10 0.05 0.04 0.03 0.01 0.05 0.05 0.03 0.03 0.01 0.01 0.02 0.06 0.03 0.02 0.01 0.03 0.06 0.10 0.04 0.04 0.06 0.03 0.02 0.01 0.01 0.01 0.00 0.00 0.00 0.01 0.01 0.00 0.01 0.09 0.16 0.11 0.14 0.36 0.43 0.44 0.23 0.19 0.11 0.21 0.32 0.63 0.63 0.51 0.51 0.71 0.85 1.03 0.93 1.10 1.14 1.20 1.22 1.01 0.88 0.93 0.79 0.71 0.62 0.58 0.53 0.68 0.77 0.60 0.46 0.52 0.78 0.47 0.40 0.45 0.46 0.52 0.60 0.60 0.70 0.63 0.67
0.00 0.08 0.12 0.21 0.13 0.11 0.10 0.18 0.08 0.08 0.08 0.23 0.17 0.02 0.01 0.02 0.06 0.01 0.00 0.00 0.02 0.00 0.00 0.00 0.00 0.00 0.00 0.00 0.00 0.01 0.00 0.00 0.02 0.00 0.00 0.00 0.01 0.02 0.02 0.03 0.03 0.06 0.01 0.02 0.01 0.01 0.02 0.02 0.01 0.03 0.03 0.10 0.19 0.24 0.31 0.36 0.29 0.42 0.56 0.49 0.83 0.60 0.46 0.45 0.43 1.05 1.42 1.18 1.00 1.27 1.12 1.24 1.27 1.21 1.26 0.70 0.68 0.96 0.86 1.04 0.79 0.74 0.64 0.58 0.56 0.63 0.50 0.38 0.50 0.36 0.40 0.52 0.41 0.41 0.37 0.52 0.67
0.00 0.00 0.00 0.00 0.00 0.00 0.00 0.00 0.00 0.00 0.00 0.01 0.01 0.00 0.00 0.00 0.02 0.00 0.00 0.00 0.00 0.00 0.00 0.00 0.00 0.01 0.00 0.00 0.00 0.01 0.00 0.00 0.00 0.00 0.00 0.00 0.00 0.00 0.00 0.00 0.00 0.00 0.00 0.00 0.00 0.00 0.01 0.03 0.01 0.02 0.04 0.07 0.13 0.10 0.13 0.28 0.34 0.42 0.54 0.45 0.51 0.48 0.66 0.77 1.23 0.80 0.74 1.00 0.97 0.67 0.73 1.20 1.82 1.73 1.24 1.20 0.96 0.99 0.81 0.90 0.91 0.70 0.62 0.71 0.62 0.75 0.74 0.90 0.79 0.83 0.64 0.56 0.53 0.62 0.54 0.40 0.30
0.00 0.00 0.00 0.00 0.00 0.00 0.00 0.00 0.00 0.00 0.00 0.00 0.01 0.00 0.00 0.00 0.00 0.00 0.00 0.00 0.00 0.00 0.00 0.00 0.00 0.00 0.00 0.00 0.00 0.00 0.00 0.00 0.00 0.00 0.00 0.00 0.00 0.00 0.00 0.00 0.00 0.00 0.00 0.00 0.00 0.01 0.01 0.00 0.01 0.02 0.03 0.06 0.06 0.08 0.13 0.23 0.16 0.20 0.43 0.88 0.69 1.31 1.41 1.29 1.28 1.05 1.10 1.01 0.93 1.39 1.74 1.13 1.24 1.16 1.32 1.57 0.78 0.95 1.31 1.33 1.26 1.25 0.74 0.60 0.61 0.65 0.94 0.68 0.85 0.80 0.65 0.70 0.51 0.68 0.56 0.52 0.48
0.00 0.00 0.00 0.00 0.00 0.00 0.00 0.00 0.00 0.00 0.00 0.00 0.00 0.00 0.00 0.00 0.00 0.00 0.00 0.00 0.00 0.00 0.00 0.00 0.00 0.00 0.00 0.00 0.00 0.00 0.00 0.00 0.00 0.00 0.00 0.00 0.00 0.00 0.00 0.00 0.00 0.00 0.00 0.00 0.00 0.00 0.01 0.00 0.02 0.01 0.03 0.04 0.07 0.13 0.22 0.21 0.31 0.34 0.36 0.40 0.49 0.43 0.45 0.69 1.16 1.21 1.09 1.31 1.33 1.37 1.49 1.15 1.01 1.01 0.95 1.50 1.39 1.45 1.32 1.22 1.71 1.69 1.44 1.17 0.74 0.75 0.66 0.65 0.58 0.65 0.57 0.69 0.62 0.65 0.55 0.53 0.54
0.00 0.00 0.00 0.00 0.00 0.00 0.00 0.00 0.00 0.00 0.00 0.00 0.00 0.02 0.00 0.00 0.00 0.00 0.00 0.00 0.00 0.00 0.00 0.00 0.00 0.00 0.00 0.00 0.00 0.00 0.00 0.00 0.00 0.00 0.00 0.00 0.00 0.00 0.00 0.00 0.00 0.00 0.00 0.00 0.00 0.00 0.00 0.00 0.00 0.01 0.01 0.03 0.15 0.20 0.32 0.26 0.38 0.56 0.60 0.42 0.79 0.73 0.99 0.72 0.56 0.73 1.00 1.07 1.73 1.21 1.18 1.26 1.20 1.42 1.65 1.27 1.22 1.29 1.12 1.16 0.94 1.02 1.16 1.20 1.37 1.21 0.82 0.80 0.66 0.63 0.63 0.60 0.50 0.51 0.54 0.58 0.53
0.00 0.00 0.00 0.00 0.00 0.00 0.00 0.00 0.00 0.00 0.00 0.00 0.00 0.06 0.00 0.00 0.00 0.00 0.00 0.00 0.00 0.00 0.00 0.00 0.00 0.00 0.00 0.00 0.00 0.00 0.00 0.00 0.00 0.00 0.00 0.00 0.00 0.00 0.00 0.00 0.00 0.00 0.00 0.00 0.00 0.00 0.00 0.00 0.00 0.01 0.00 0.01 0.09 0.19 0.20 0.27 0.39 0.59 0.93 0.85 0.76 0.61 1.02 1.02 0.92 1.54 0.92 1.09 1.30 0.79 1.15 1.57 1.48 1.40 1.44 1.06 1.11 0.71 0.67 0.68 0.78 0.69 0.54 0.59 0.66 0.78 0.83 0.99 1.12 0.75 0.69 0.68 0.63 0.46 0.46 0.44 0.40
0.00 0.00 0.00 0.02 0.02 0.00 0.00 0.00 0.00 0.00 0.00 0.00 0.00 0.00 0.00 0.00 0.00 0.00 0.00 0.00 0.00 0.00 0.00 0.00 0.00 0.00 0.00 0.00 0.00 0.00 0.00 0.00 0.00 0.00 0.00 0.00 0.00 0.00 0.00 0.00 0.00 0.00 0.00 0.00 0.00 0.00 0.00 0.00 0.00 0.00 0.01 0.05 0.02 0.14 0.27 0.34 0.79 1.33 1.56 1.29 1.24 1.02 1.17 0.86 0.63 0.76 1.22 1.24 1.43 1.58 1.61 1.35 1.32 1.20 0.91 0.79 0.68 0.61 0.65 0.56 0.43 0.56 0.68 0.93 0.92 1.08 1.08 0.92 0.95 0.99 0.97 1.19 1.07 0.72 0.60 0.45 0.47
0.00 0.00 0.00 0.00 0.00 0.00 0.00 0.00 0.00 0.05 0.00 0.00 0.00 0.00 0.00 0.00 0.00 0.00 0.00 0.00 0.00 0.00 0.00 0.00 0.00 0.00 0.00 0.00 0.00 0.00 0.00 0.00 0.00 0.00 0.00 0.00 0.00 0.00 0.00 0.00 0.00 0.00 0.00 0.00 0.00 0.00 0.03 0.03 0.03 0.11 0.13 0.43 0.34 0.17 0.22 0.17 0.12 0.23 0.42 0.80 0.72 1.07 0.92 0.68 0.84 0.90 0.81 0.89 1.16 1.10 1.21 1.18 1.21 1.60 1.47 1.38 1.68 1.02 0.85 1.07 1.10 1.25 1.33 1.48 1.50 1.17 0.98 0.63 0.55 0.58 0.57 0.68 0.93 1.20 0.85 0.82 0.61
0.01 0.01 0.00 0.00 0.01 0.01 0.01 0.00 0.00 0.00 0.00 0.00 0.00 0.00 0.00 0.00 0.00 0.00 0.00 0.00 0.00 0.00 0.00 0.00 0.00 0.00 0.00 0.00 0.00 0.00 0.00 0.00 0.00 0.00 0.00 0.00 0.00 0.00 0.00 0.00 0.00 0.00 0.00 0.00 0.00 0.00 0.00 0.00 0.01 0.01 0.01 0.01 0.02 0.03 0.06 0.10 0.16 0.18 0.28 0.30 0.50 1.03 1.07 0.79 0.65 0.56 0.67 0.65 0.81 0.83 0.81 1.22 1.49 2.01 1.95 1.52 1.48 1.91 1.87 1.55 1.71 1.89 1.46 1.58 1.59 1.84 1.63 1.89 1.82 1.33 1.09 0.95 0.76 0.81 0.86 0.90 0.76
0.02 0.03 0.04 0.03 0.01 0.00 0.00 0.00 0.04 0.00 0.00 0.00 0.00 0.00 0.00 0.00 0.00 0.00 0.00 0.00 0.00 0.00 0.00 0.00 0.00 0.00 0.00 0.00 0.00 0.00 0.00 0.00 0.00 0.00 0.00 0.00 0.00 0.00 0.00 0.00 0.00 0.00 0.00 0.00 0.00 0.00 0.00 0.00 0.01 0.01 0.01 0.02 0.02 0.05 0.06 0.06 0.20 0.18 0.20 0.18 0.16 0.15 0.80 0.56 0.64 0.81 1.12 0.71 0.95 1.31 1.01 0.97 0.84 1.17 1.24 1.55 1.04 0.84 0.76 1.13 1.21 1.77 1.52 1.19 0.96 1.13 1.27 1.60 1.46 2.01 1.53 1.45 1.11 1.25 0.78 0.69 0.83
0.03 0.02 0.02 0.01 0.00 0.00 0.00 0.00 0.00 0.00 0.00 0.00 0.00 0.00 0.00 0.00 0.00 0.00 0.00 0.00 0.00 0.00 0.00 0.00 0.00 0.00 0.00 0.00 0.00 0.00 0.00 0.00 0.10 0.00 0.00 0.00 0.00 0.00 0.00 0.00 0.00 0.00 0.00 0.00 0.00 0.00 0.00 0.00 0.01 0.01 0.02 0.03 0.03 0.03 0.04 0.07 0.07 0.10 0.09 0.12 0.17 0.19 0.26 0.37 0.59 0.36 0.45 0.52 0.97 0.92 0.93 1.02 1.38 1.08 1.25 1.40 1.83 1.43 1.19 1.44 1.77 1.48 1.46 1.26 0.86 0.79 1.17 0.75 0.94 0.95 1.02 1.41 1.02 0.90 0.87 0.84 0.71
0.01 0.00 0.00 0.00 0.00 0.00 0.00 0.00 0.01 0.01 0.02 0.00 0.00 0.00 0.00 0.00 0.00 0.00 0.00 0.00 0.00 0.00 0.00 0.00 0.00 0.00 0.00 0.00 0.00 0.00 0.00 0.00 0.02 0.01 0.00 0.00 0.00 0.00 0.00 0.00 0.00 0.00 0.00 0.00 0.00 0.00 0.00 0.00 0.00 0.01 0.02 0.03 0.03 0.05 0.03 0.02 0.06 0.07 0.07 0.07 0.08 0.18 0.10 0.20 0.20 0.14 0.20 0.32 0.56 0.43 0.58 0.79 1.03 0.85 0.96 1.34 1.03 1.20 1.38 1.32 1.39 1.21 1.23 1.49 1.62 1.72 1.79 1.55 1.29 1.62 1.36 1.27 1.05 0.86 0.82 0.89 0.93
0.01 0.01 0.01 0.01 0.02 0.01 0.02 0.01 0.05 0.19 0.13 0.02 0.01 0.02 0.00 0.00 0.00 0.00 0.00 0.00 0.00 0.00 0.00 0.00 0.00 0.00 0.00 0.00 0.00 0.00 0.00 0.00 0.00 0.01 0.00 0.00 0.00 0.00 0.00 0.00 0.00 0.00 0.00 0.00 0.00 0.00 0.00 0.00 0.00 0.01 0.03 0.05 0.07 0.07 0.06 0.05 0.04 0.08 0.15 0.08 0.11 0.16 0.19 0.24 0.20 0.26 0.34 0.58 0.40 0.52 0.42 0.45 0.53 0.56 0.79 0.83 0.99 1.17 1.40 1.20 1.43 1.38 1.35 1.34 1.32 1.11 1.13 1.16 1.40 1.51 1.45 1.35 1.19 1.13 0.92 0.71 0.81
0.01 0.02 0.02 0.02 0.01 0.00 0.00 0.00 0.00 0.03 0.01 0.02 0.01 0.00 0.00 0.00 0.00 0.00 0.00 0.00 0.00 0.00 0.00 0.00 0.00 0.00 0.00 0.00 0.00 0.00 0.00 0.01 0.01 0.01 0.01 0.01 0.01 0.00 0.00 0.00 0.00 0.00 0.00 0.00 0.00 0.00 0.00 0.00 0.00 0.00 0.01 0.03 0.08 0.07 0.09 0.10 0.07 0.05 0.07 0.15 0.14 0.19 0.38 0.22 0.46 0.15 0.28 0.25 0.39 0.59 0.70 0.48 0.61 0.72 0.77 0.88 0.90 0.88 1.15 0.95 0.95 1.35 1.49 1.20 1.06 0.95 1.04 1.16 1.27 1.33 1.26 1.25 1.18 1.19 1.22 1.12 0.95
0.00 0.00 0.01 0.01 0.00 0.01 0.01 0.00 0.01 0.00 0.00 0.00 0.00 0.00 0.00 0.00 0.00 0.00 0.00 0.00 0.00 0.00 0.00 0.00 0.00 0.00 0.00 0.00 0.00 0.01 0.01 0.01 0.02 0.01 0.01 0.01 0.01 0.00 0.00 0.00 0.00 0.00 0.00 0.00 0.00 0.00 0.00 0.00 0.00 0.01 0.01 0.01 0.03 0.07 0.06 0.07 0.06 0.05 0.04 0.05 0.08 0.12 0.11 0.14 0.27 0.13 0.21 0.34 0.27 0.32 0.36 0.42 0.48 0.56 0.54 0.55 0.57 0.62 0.76 0.90 1.00 1.00 0.94 0.99 1.12 1.44 1.23 1.04 1.20 1.14 1.04 1.10 1.17 1.32 1.15 1.10 1.20
0.00 0.00 0.00 0.00 0.00 0.03 0.01 0.00 0.00 0.00 0.00 0.00 0.00 0.01 0.00 0.00 0.00 0.02 0.02 0.00 0.00 0.00 0.00 0.00 0.00 0.00 0.00 0.00 0.00 0.01 0.01 0.02 0.02 0.01 0.01 0.01 0.01 0.01 0.00 0.00 0.00 0.00 0.00 0.00 0.00 0.00 0.00 0.00 0.00 0.01 0.02 0.02 0.02 0.05 0.09 0.11 0.12 0.14 0.16 0.15 0.12 0.08 0.10 0.10 0.13 0.16 0.15 0.15 0.19 0.26 0.34 0.45 0.61 0.68 0.63 0.67 0.67 0.74 0.87 0.76 0.93 0.99 0.88 1.07 0.93 0.91 0.80 0.89 1.07 1.08 1.02 1.11 1.14 1.21 1.15 1.05 0.95
0.00 0.00 0.00 0.01 0.00 0.00 0.00 0.00 0.01 0.01 0.00 0.01 0.02 0.03 0.00 0.00 0.01 0.03 0.00 0.00 0.00 0.00 0.00 0.00 0.10 0.00 0.00 0.00 0.01 0.01 0.01 0.01 0.01 0.01 0.01 0.01 0.01 0.01 0.00 0.00 0.00 0.00 0.00 0.00 0.00 0.00 0.00 0.00 0.00 0.01 0.00 0.02 0.03 0.03 0.03 0.07 0.12 0.17 0.17 0.14 0.10 0.09 0.09 0.08 0.11 0.24 0.19 0.15 0.32 0.25 0.24 0.36 0.56 0.78 0.93 0.73 0.63 0.82 0.60 0.61 0.74 0.86 0.84 0.87 1.17 1.20 1.14 1.28 0.92 0.84 0.96 1.08 1.32 1.16 1.20 0.99 1.01
0.00 0.00 0.00 0.01 0.01 0.00 0.00 0.00 0.00 0.01 0.01 0.00 0.00 0.08 0.01 0.00 0.00 0.00 0.01 0.00 0.00 0.00 0.00 0.01 0.09 0.04 0.00 0.01 0.01 0.01 0.01 0.01 0.01 0.01 0.01 0.01 0.01 0.00 0.00 0.00 0.00 0.00 0.00 0.00 0.00 0.00 0.00 0.00 0.00 0.00 0.00 0.00 0.00 0.02 0.03 0.05 0.07 0.10 0.15 0.19 0.14 0.11 0.09 0.08 0.16 0.15 0.13 0.20 0.24 0.21 0.18 0.24 0.32 0.33 0.38 0.36 0.47 0.60 0.75 0.64 0.61 0.63 0.69 0.77 0.79 0.83 0.79 0.83 1.02 1.09 1.15 1.05 0.96 0.99 1.18 1.26 1.16
0.00 0.00 0.00 0.00 0.00 0.00 0.00 0.00 0.01 0.01 0.00 0.00 0.00 0.00 0.05 0.01 0.00 0.00 0.00 0.02 0.00 0.01 0.02 0.01 0.01 0.03 0.03 0.01 0.00 0.00 0.01 0.01 0.01 0.01 0.01 0.01 0.01 0.00 0.00 0.00 0.00 0.00 0.00 0.00 0.00 0.00 0.00 0.00 0.00 0.00 0.00 0.00 0.00 0.00 0.01 0.03 0.06 0.08 0.09 0.12 0.13 0.14 0.15 0.15 0.15 0.16 0.12 0.14 0.15 0.22 0.14 0.16 0.18 0.17 0.23 0.23 0.22 0.24 0.32 0.57 0.59 0.52 0.83 0.53 0.55 0.60 0.74 0.71 0.74 0.83 0.82 0.93 1.10 1.07 1.22 1.17 1.05
0.00 0.00 0.00 0.00 0.00 0.00 0.00 0.00 0.01 0.02 0.01 0.01 0.00 0.02 0.04 0.02 0.00 0.00 0.00 0.01 0.01 0.02 0.02 0.12 0.01 0.04 0.02 0.01 0.01 0.01 0.01 0.01 0.01 0.01 0.01 0.00 0.00 0.00 0.00 0.00 0.00 0.00 0.00 0.01 0.01 0.00 0.00 0.00 0.01 0.01 0.00 0.00 0.00 0.00 0.01 0.02 0.04 0.05 0.07 0.11 0.15 0.15 0.17 0.14 0.10 0.09 0.07 0.08 0.10 0.11 0.13 0.13 0.16 0.15 0.13 0.12 0.12 0.10 0.12 0.20 0.25 0.33 0.41 0.71 0.67 0.57 0.51 0.56 0.61 0.65 0.78 0.81 0.77 0.84 0.81 0.99 1.03
0.00 0.00 0.00 0.00 0.00 0.00 0.00 0.00 0.02 0.02 0.02 0.01 0.00 0.03 0.09 0.01 0.00 0.00 0.03 0.01 0.02 0.02 0.05 0.03 0.02 0.02 0.02 0.02 0.01 0.01 0.01 0.01 0.01 0.01 0.00 0.00 0.00 0.00 0.00 0.00 0.01 0.01 0.01 0.01 0.01 0.01 0.01 0.01 0.01 0.00 0.00 0.00 0.00 0.01 0.01 0.01 0.03 0.03 0.05 0.09 0.09 0.10 0.10 0.10 0.10 0.13 0.12 0.10 0.09 0.08 0.08 0.08 0.09 0.09 0.12 0.10 0.09 0.17 0.19 0.09 0.12 0.09 0.12 0.38 0.86 0.58 0.62 0.89 0.63 0.55 0.58 0.58 0.69 0.70 0.81 0.79 0.97
0.00 0.00 0.00 0.00 0.00 0.00 0.00 0.01 0.00 0.01 0.03 0.01 0.00 0.01 0.02 0.09 0.01 0.01 0.02 0.01 0.01 0.01 0.03 0.04 0.02 0.01 0.02 0.01 0.00 0.00 0.00 0.00 0.00 0.00 0.00 0.00 0.00 0.00 0.01 0.02 0.03 0.03 0.02 0.02 0.01 0.01 0.01 0.01 0.01 0.01 0.00 0.00 0.00 0.01 0.01 0.04 0.03 0.02 0.04 0.07 0.08 0.08 0.10 0.10 0.11 0.10 0.09 0.10 0.15 0.11 0.10 0.09 0.11 0.14 0.16 0.22 0.15 0.15 0.17 0.15 0.50 0.22 0.30 0.20 0.25 0.22 0.22 0.38 0.46 0.62 0.66 0.68 0.77 0.71 0.72 0.73 0.72
0.00 0.00 0.00 0.00 0.01 0.00 0.01 0.00 0.00 0.04 0.04 0.00 0.01 0.00 0.01 0.18 0.02 0.00 0.01 0.01 0.01 0.05 0.01 0.02 0.02 0.00 0.01 0.01 0.00 0.00 0.00 0.00 0.00 0.00 0.00 0.00 0.01 0.02 0.03 0.04 0.04 0.03 0.03 0.02 0.02 0.01 0.01 0.01 0.01 0.01 0.01 0.01 0.01 0.01 0.01 0.02 0.02 0.02 0.04 0.05 0.04 0.05 0.05 0.05 0.04 0.04 0.06 0.06 0.06 0.07 0.11 0.14 0.18 0.31 0.22 0.24 0.34 0.25 0.17 0.19 0.30 0.28 0.24 0.22 0.28 0.31 0.49 0.34 0.22 0.31 0.34 0.41 0.48 0.65 0.62 0.65 0.77
0.00 0.00 0.00 0.02 0.06 0.06 0.06 0.02 0.04 0.03 0.01 0.01 0.00 0.00 0.00 0.00 0.00 0.01 0.00 0.00 0.05 0.02 0.01 0.02 0.01 0.01 0.02 0.01 0.00 0.00 0.00 0.00 0.00 0.00 0.01 0.02 0.04 0.05 0.05 0.05 0.04 0.04 0.03 0.03 0.02 0.02 0.01 0.01 0.01 0.01 0.01 0.02 0.01 0.02 0.02 0.03 0.04 0.03 0.03 0.03 0.03 0.03 0.03 0.03 0.03 0.03 0.03 0.03 0.04 0.06 0.07 0.12 0.13 0.15 0.17 0.30 0.29 0.37 0.35 0.24 0.26 0.23 0.26 0.27 0.45 0.31 0.40 0.49 0.33 0.27 0.36 0.55 0.49 0.41 0.45 0.57 0.64
0.02 0.02 0.09 0.13 0.18 0.14 0.11 0.09 0.05 0.02 0.02 0.01 0.00 0.00 0.00 0.00 0.01 0.02 0.00 0.02 0.04 0.07 0.03 0.01 0.01 0.01 0.01 0.00 0.00 0.00 0.00 0.00 0.01 0.01 0.03 0.04 0.05 0.05 0.05 0.05 0.05 0.04 0.03 0.03 0.02 0.01 0.01 0.01 0.01 0.01 0.01 0.02 0.02 0.03 0.03 0.05 0.03 0.03 0.03 0.04 0.05 0.04 0.04 0.03 0.02 0.02 0.03 0.03 0.03 0.03 0.03 0.05 0.06 0.07 0.09 0.12 0.12 0.22 0.14 0.19 0.25 0.34 0.34 0.33 0.30 0.31 0.32 0.35 0.32 0.32 0.40 0.42 0.40 0.49 0.45 0.45 0.56
0.01 0.00 0.01 0.05 0.08 0.14 0.14 0.09 0.11 0.06 0.07 0.05 0.01 0.01 0.01 0.00 0.00 0.00 0.01 0.05 0.02 0.15 0.09 0.03 0.01 0.01 0.00 0.00 0.00 0.00 0.00 0.02 0.02 0.03 0.04 0.05 0.05 0.05 0.05 0.05 0.05 0.04 0.03 0.02 0.01 0.01 0.01 0.02 0.01 0.02 0.02 0.02 0.02 0.02 0.03 0.03 0.02 0.03 0.04 0.04 0.03 0.02 0.02 0.02 0.04 0.03 0.02 0.02 0.02 0.02 0.02 0.02 0.03 0.05 0.07 0.09 0.11 0.12 0.16 0.20 0.29 0.30 0.28 0.34 0.44 0.52 0.42 0.50 0.40 0.39 0.44 0.43 0.35 0.40 0.47 0.54 0.55
0.00 0.00 0.01 0.03 0.04 0.46 0.24 0.21 0.20 0.12 0.11 0.09 0.05 0.02 0.00 0.00 0.00 0.00 0.00 0.02 0.04 0.09 0.04 0.03 0.01 0.01 0.00 0.00 0.00 0.00 0.01 0.02 0.03 0.04 0.05 0.06 0.06 0.05 0.05 0.04 0.03 0.02 0.01 0.01 0.01 0.02 0.02 0.02 0.02 0.02 0.04 0.02 0.02 0.02 0.02 0.02 0.02 0.04 0.03 0.02 0.02 0.02 0.03 0.02 0.02 0.02 0.02 0.01 0.02 0.03 0.05 0.04 0.03 0.03 0.06 0.05 0.12 0.11 0.12 0.13 0.16 0.20 0.20 0.26 0.21 0.30 0.28 0.34 0.34 0.40 0.35 0.31 0.31 0.29 0.27 0.31 0.35
0.10 0.02 0.04 0.05 0.01 0.03 0.09 0.09 0.06 0.04 0.09 0.10 0.01 0.00 0.00 0.00 0.00 0.01 0.00 0.06 0.04 0.09 0.01 0.03 0.02 0.11 0.01 0.01 0.01 0.01 0.02 0.04 0.05 0.07 0.08 0.09 0.07 0.05 0.03 0.02 0.02 0.02 0.02 0.02 0.02 0.02 0.02 0.02 0.02 0.03 0.02 0.01 0.02 0.02 0.02 0.02 0.03 0.03 0.03 0.02 0.04 0.02 0.02 0.02 0.03 0.04 0.03 0.03 0.04 0.03 0.03 0.03 0.03 0.03 0.04 0.04 0.04 0.05 0.06 0.10 0.13 0.20 0.20 0.29 0.32 0.36 0.41 0.34 0.24 0.25 0.28 0.30 0.32 0.31 0.31 0.29 0.26
0.00 0.01 0.02 0.00 0.01 0.01 0.10 0.20 0.12 0.12 0.13 0.08 0.02 0.01 0.01 0.00 0.04 0.00 0.02 0.04 0.03 0.05 0.06 0.02 0.05 0.04 0.01 0.01 0.02 0.03 0.05 0.07 0.08 0.09 0.09 0.07 0.04 0.03 0.02 0.02 0.02 0.02 0.02 0.02 0.02 0.03 0.02 0.03 0.02 0.01 0.02 0.04 0.05 0.05 0.04 0.04 0.02 0.02 0.02 0.02 0.02 0.01 0.02 0.03 0.03 0.04 0.04 0.04 0.04 0.05 0.04 0.04 0.05 0.04 0.05 0.06 0.06 0.07 0.08 0.09 0.09 0.11 0.14 0.15 0.19 0.22 0.27 0.27 0.41 0.38 0.36 0.31 0.32 0.32 0.32 0.36 0.34
0.01 0.02 0.35 0.04 0.22 0.21 0.24 0.20 0.31 0.21 0.22 0.11 0.04 0.02 0.01 0.01 0.04 0.01 0.03 0.08 0.05 0.04 0.04 0.03 0.02 0.02 0.02 0.03 0.05 0.06 0.08 0.10 0.10 0.08 0.07 0.05 0.03 0.02 0.02 0.02 0.02 0.02 0.02 0.03 0.03 0.03 0.02 0.02 0.02 0.02 0.04 0.04 0.04 0.05 0.04 0.03 0.03 0.03 0.03 0.01 0.02 0.02 0.03 0.02 0.02 0.03 0.03 0.03 0.03 0.03 0.05 0.05 0.06 0.05 0.07 0.07 0.08 0.09 0.10 0.11 0.11 0.12 0.21 0.16 0.15 0.17 0.17 0.18 0.22 0.29 0.28 0.29 0.30 0.29 0.30 0.33 0.32
0.01 0.00 0.01 0.00 0.03 0.10 0.26 0.23 0.24 0.34 0.28 0.23 0.19 0.07 0.04 0.01 0.01 0.01 0.11 0.14 0.04 0.04 0.04 0.03 0.03 0.04 0.04 0.05 0.06 0.08 0.09 0.09 0.08 0.07 0.06 0.04 0.02 0.01 0.01 0.03 0.04 0.04 0.03 0.03 0.03 0.02 0.02 0.02 0.02 0.04 0.03 0.04 0.05 0.05 0.03 0.03 0.03 0.03 0.02 0.02 0.02 0.02 0.03 0.02 0.02 0.04 0.05 0.03 0.03 0.06 0.10 0.07 0.06 0.05 0.07 0.08 0.09 0.10 0.11 0.13 0.12 0.14 0.15 0.33 0.22 0.20 0.25 0.19 0.20 0.20 0.22 0.21 0.22 0.25 0.29 0.34 0.34
0.01 0.01 0.02 0.02 0.04 0.14 0.14 0.15 0.16 0.19 0.23 0.28 0.26 0.24 0.09 0.02 0.01 0.01 0.14 0.03 0.03 0.02 0.03 0.04 0.04 0.04 0.04 0.06 0.07 0.08 0.08 0.11 0.06 0.06 0.06 0.03 0.07 0.03 0.05 0.04 0.03 0.03 0.03 0.03 0.03 0.03 0.03 0.04 0.05 0.05 0.05 0.06 0.04 0.03 0.02 0.02 0.02 0.02 0.02 0.02 0.02 0.02 0.02 0.03 0.03 0.04 0.05 0.06 0.08 0.12 0.07 0.09 0.14 0.12 0.07 0.07 0.07 0.08 0.10 0.11 0.14 0.16 0.18 0.26 0.24 0.29 0.26 0.28 0.31 0.30 0.31 0.31 0.31 0.32 0.33 0.32 0.33
0.01 0.01 0.02 0.01 0.03 0.07 0.21 0.25 0.05 0.08 0.21 0.25 0.24 0.26 0.11 0.02 0.00 0.03 0.02 0.02 0.01 0.02 0.03 0.04 0.04 0.04 0.04 0.05 0.06 0.06 0.07 0.03 0.02 0.02 0.03 0.01 0.08 0.04 0.04 0.04 0.03 0.03 0.03 0.03 0.05 0.05 0.06 0.07 0.07 0.08 0.07 0.06 0.04 0.03 0.02 0.02 0.02 0.02 0.02 0.02 0.03 0.02 0.03 0.03 0.04 0.05 0.05 0.07 0.14 0.13 0.13 0.10 0.14 0.06 0.12 0.08 0.09 0.10 0.10 0.11 0.13 0.14 0.15 0.17 0.25 0.25 0.26 0.30 0.32 0.31 0.31 0.33 0.37 0.41 0.38 0.38 0.36